contact:dominique.lefevre@mio.osupytheas.fr, maurice.libes@osupytheas.fr, didier.mallarino@osupytheas.fr
Project:EMSO http://www.emso-fr.org/EMSO-France
Depth: 2436.0 m
Title:EMSO Ligure Ouest : Data MII capteur MICROCAT
DateTime_Computer,Latitude,Longitude,Temperature,Conductivity,Pressure,DateTime_Instrument
DateTime_Computer,Latitude,Longitude,degC,S m-1,dbar,DateTime_Instrument
2021-01-11T00:02:39Z,42.805,6.029,13.2976,4.59979,2470.124,2021-1-11T02:03:40Z
2021-01-11T00:05:42Z,42.805,6.029,13.2977,4.59979,2470.133,2021-1-11T02:06:43Z
2021-01-11T00:08:45Z,42.805,6.029,13.2979,4.59978,2470.147,2021-1-11T02:09:46Z
2021-01-11T00:11:48Z,42.805,6.029,13.2977,4.59979,2470.124,2021-1-11T02:12:49Z
2021-01-11T00:14:51Z,42.805,6.029,13.2979,4.59979,2470.133,2021-1-11T02:15:52Z
2021-01-11T00:17:54Z,42.805,6.029,13.2975,4.59986,2470.147,2021-1-11T02:18:56Z
2021-01-11T00:20:58Z,42.805,6.029,13.2978,4.59980,2470.147,2021-1-11T02:21:59Z
2021-01-11T00:24:01Z,42.805,6.029,13.2976,4.59979,2470.156,2021-1-11T02:25:02Z
2021-01-11T00:27:04Z,42.805,6.029,13.2980,4.59979,2470.11,2021-1-11T02:28:05Z
2021-01-11T00:30:07Z,42.805,6.029,13.2979,4.59979,2470.096,2021-1-11T02:31:08Z
2021-01-11T00:33:10Z,42.805,6.029,13.2979,4.59981,2470.124,2021-1-11T02:34:11Z
2021-01-11T00:36:13Z,42.805,6.029,13.2973,4.59980,2470.1,2021-1-11T02:37:14Z
2021-01-11T00:39:16Z,42.805,6.029,13.2977,4.59981,2470.124,2021-1-11T02:40:17Z
2021-01-11T00:42:19Z,42.805,6.029,13.2976,4.59980,2470.147,2021-1-11T02:43:20Z
2021-01-11T00:45:22Z,42.805,6.029,13.2979,4.59979,2470.133,2021-1-11T02:46:24Z
2021-01-11T00:48:26Z,42.805,6.029,13.2976,4.59980,2470.133,2021-1-11T02:49:27Z
2021-01-11T00:51:29Z,42.805,6.029,13.2980,4.59979,2470.11,2021-1-11T02:52:30Z
2021-01-11T00:54:32Z,42.805,6.029,13.2975,4.59982,2470.147,2021-1-11T02:55:33Z
2021-01-11T00:57:35Z,42.805,6.029,13.2976,4.59984,2470.119,2021-1-11T02:58:36Z
2021-01-11T01:00:38Z,42.805,6.029,13.2975,4.59979,2470.147,2021-1-11T03:01:39Z
2021-01-11T01:03:41Z,42.805,6.029,13.2976,4.59980,2470.171,2021-1-11T03:04:42Z
2021-01-11T01:06:44Z,42.805,6.029,13.2974,4.59979,2470.11,2021-1-11T03:07:45Z
2021-01-11T01:09:47Z,42.805,6.029,13.2977,4.59981,2470.171,2021-1-11T03:10:49Z
2021-01-11T01:12:51Z,42.805,6.029,13.2977,4.59983,2470.147,2021-1-11T03:13:52Z
2021-01-11T01:15:54Z,42.805,6.029,13.2975,4.59979,2470.18,2021-1-11T03:16:55Z
2021-01-11T01:18:57Z,42.805,6.029,13.2976,4.59980,2470.133,2021-1-11T03:19:58Z
2021-01-11T01:22:00Z,42.805,6.029,13.2979,4.59981,2470.18,2021-1-11T03:23:01Z
2021-01-11T01:25:03Z,42.805,6.029,13.2977,4.59979,2470.133,2021-1-11T03:26:04Z
2021-01-11T01:28:06Z,42.805,6.029,13.2979,4.59980,2470.156,2021-1-11T03:29:07Z
2021-01-11T01:31:09Z,42.805,6.029,13.2979,4.59981,2470.156,2021-1-11T03:32:10Z
2021-01-11T01:34:12Z,42.805,6.029,13.2978,4.59980,2470.156,2021-1-11T03:35:14Z
2021-01-11T01:37:16Z,42.805,6.029,13.2980,4.59980,2470.133,2021-1-11T03:38:17Z
2021-01-11T01:40:19Z,42.805,6.029,13.2976,4.59981,2470.156,2021-1-11T03:41:20Z
2021-01-11T01:43:22Z,42.805,6.029,13.2976,4.59980,2470.171,2021-1-11T03:44:23Z
2021-01-11T01:46:25Z,42.805,6.029,13.2978,4.59980,2470.18,2021-1-11T03:47:26Z
2021-01-11T01:49:28Z,42.805,6.029,13.2975,4.59981,2470.18,2021-1-11T03:50:29Z
2021-01-11T01:52:31Z,42.805,6.029,13.2980,4.59980,2470.171,2021-1-11T03:53:32Z
2021-01-11T01:55:34Z,42.805,6.029,13.2978,4.59984,2470.217,2021-1-11T03:56:35Z
2021-01-11T01:58:37Z,42.805,6.029,13.2976,4.59981,2470.124,2021-1-11T03:59:39Z
2021-01-11T02:01:41Z,42.805,6.029,13.2976,4.59981,2470.203,2021-1-11T04:02:42Z
2021-01-11T02:04:44Z,42.805,6.029,13.2975,4.59981,2470.18,2021-1-11T04:05:45Z
2021-01-11T02:07:47Z,42.805,6.029,13.2979,4.59981,2470.217,2021-1-11T04:08:48Z
2021-01-11T02:10:50Z,42.805,6.029,13.2979,4.59983,2470.227,2021-1-11T04:11:51Z
2021-01-11T02:13:53Z,42.805,6.029,13.2977,4.59986,2470.18,2021-1-11T04:14:54Z
2021-01-11T02:16:56Z,42.805,6.029,13.2979,4.59986,2470.156,2021-1-11T04:17:57Z
2021-01-11T02:19:59Z,42.805,6.029,13.2979,4.59982,2470.18,2021-1-11T04:21:00Z
2021-01-11T02:23:02Z,42.805,6.029,13.2979,4.59981,2470.217,2021-1-11T04:24:03Z
2021-01-11T02:26:06Z,42.805,6.029,13.2980,4.59981,2470.24,2021-1-11T04:27:07Z
2021-01-11T02:29:09Z,42.805,6.029,13.2979,4.59983,2470.24,2021-1-11T04:30:10Z
2021-01-11T02:32:12Z,42.805,6.029,13.2983,4.59981,2470.217,2021-1-11T04:33:13Z
2021-01-11T02:35:15Z,42.805,6.029,13.2981,4.59993,2470.203,2021-1-11T04:36:16Z
2021-01-11T02:38:18Z,42.805,6.029,13.2977,4.59983,2470.217,2021-1-11T04:39:19Z
2021-01-11T02:41:21Z,42.805,6.029,13.2978,4.59981,2470.24,2021-1-11T04:42:22Z
2021-01-11T02:44:24Z,42.805,6.029,13.2982,4.59996,2470.227,2021-1-11T04:45:25Z
2021-01-11T02:47:27Z,42.805,6.029,13.2983,4.59984,2470.25,2021-1-11T04:48:28Z
2021-01-11T02:50:31Z,42.805,6.029,13.2977,4.59982,2470.24,2021-1-11T04:51:32Z
2021-01-11T02:53:34Z,42.805,6.029,13.2980,4.59986,2470.25,2021-1-11T04:54:35Z
2021-01-11T02:56:37Z,42.805,6.029,13.2979,4.59982,2470.25,2021-1-11T04:57:38Z
2021-01-11T02:59:40Z,42.805,6.029,13.2977,4.59987,2470.25,2021-1-11T05:00:41Z
2021-01-11T03:02:43Z,42.805,6.029,13.2980,4.59985,2470.25,2021-1-11T05:03:44Z
2021-01-11T03:05:46Z,42.805,6.029,13.2981,4.59984,2470.264,2021-1-11T05:06:47Z
2021-01-11T03:08:49Z,42.805,6.029,13.2979,4.59982,2470.25,2021-1-11T05:09:50Z
2021-01-11T03:11:52Z,42.805,6.029,13.2982,4.59983,2470.273,2021-1-11T05:12:53Z
2021-01-11T03:14:56Z,42.805,6.029,13.2979,4.59984,2470.264,2021-1-11T05:15:57Z
2021-01-11T03:17:59Z,42.805,6.029,13.2983,4.59983,2470.264,2021-1-11T05:19:00Z
2021-01-11T03:21:02Z,42.805,6.029,13.2983,4.59983,2470.273,2021-1-11T05:22:03Z
2021-01-11T03:24:05Z,42.805,6.029,13.2978,4.59981,2470.25,2021-1-11T05:25:06Z
2021-01-11T03:27:08Z,42.805,6.029,13.2976,4.59984,2470.227,2021-1-11T05:28:09Z
2021-01-11T03:30:11Z,42.805,6.029,13.2983,4.59986,2470.287,2021-1-11T05:31:12Z
2021-01-11T03:33:14Z,42.805,6.029,13.2979,4.59983,2470.273,2021-1-11T05:34:15Z
2021-01-11T03:36:17Z,42.805,6.029,13.2977,4.59982,2470.287,2021-1-11T05:37:18Z
2021-01-11T03:39:21Z,42.805,6.029,13.2978,4.59982,2470.31,2021-1-11T05:40:22Z
2021-01-11T03:42:24Z,42.805,6.029,13.2979,4.59985,2470.31,2021-1-11T05:43:25Z
2021-01-11T03:45:27Z,42.805,6.029,13.2978,4.59983,2470.287,2021-1-11T05:46:28Z
2021-01-11T03:48:30Z,42.805,6.029,13.2976,4.59983,2470.297,2021-1-11T05:49:31Z
2021-01-11T03:51:33Z,42.805,6.029,13.2979,4.59983,2470.273,2021-1-11T05:52:34Z
2021-01-11T03:54:36Z,42.805,6.029,13.2982,4.59986,2470.32,2021-1-11T05:55:37Z
2021-01-11T03:57:39Z,42.805,6.029,13.2979,4.59986,2470.297,2021-1-11T05:58:40Z
2021-01-11T04:00:42Z,42.805,6.029,13.2981,4.59986,2470.25,2021-1-11T06:01:43Z
2021-01-11T04:03:45Z,42.805,6.029,13.2981,4.59983,2470.31,2021-1-11T06:04:47Z
2021-01-11T04:06:49Z,42.805,6.029,13.2977,4.59983,2470.32,2021-1-11T06:07:50Z
2021-01-11T04:09:52Z,42.805,6.029,13.2980,4.59984,2470.32,2021-1-11T06:10:53Z
2021-01-11T04:12:55Z,42.805,6.029,13.2977,4.59984,2470.32,2021-1-11T06:13:56Z
2021-01-11T04:15:58Z,42.805,6.029,13.2980,4.59984,2470.297,2021-1-11T06:16:59Z
2021-01-11T04:19:01Z,42.805,6.029,13.2976,4.59986,2470.31,2021-1-11T06:20:02Z
2021-01-11T04:22:04Z,42.805,6.029,13.2981,4.59983,2470.334,2021-1-11T06:23:05Z
2021-01-11T04:25:07Z,42.805,6.029,13.2982,4.59985,2470.31,2021-1-11T06:26:08Z
2021-01-11T04:28:10Z,42.805,6.029,13.2982,4.59987,2470.334,2021-1-11T06:29:12Z
2021-01-11T04:31:14Z,42.805,6.029,13.2982,4.59983,2470.334,2021-1-11T06:32:15Z
2021-01-11T04:34:17Z,42.805,6.029,13.2983,4.59984,2470.32,2021-1-11T06:35:18Z
2021-01-11T04:37:20Z,42.805,6.029,13.2980,4.59983,2470.32,2021-1-11T06:38:21Z
2021-01-11T04:40:23Z,42.805,6.029,13.2984,4.59986,2470.297,2021-1-11T06:41:24Z
2021-01-11T04:43:26Z,42.805,6.029,13.2976,4.59984,2470.32,2021-1-11T06:44:27Z
2021-01-11T04:46:29Z,42.805,6.029,13.2982,4.59983,2470.334,2021-1-11T06:47:30Z
2021-01-11T04:49:32Z,42.805,6.029,13.2980,4.59982,2470.32,2021-1-11T06:50:33Z
2021-01-11T04:52:35Z,42.805,6.029,13.2979,4.59986,2470.357,2021-1-11T06:53:37Z
2021-01-11T04:55:39Z,42.805,6.029,13.2978,4.59983,2470.366,2021-1-11T06:56:40Z
2021-01-11T04:58:42Z,42.805,6.029,13.2981,4.59983,2470.366,2021-1-11T06:59:43Z
2021-01-11T05:01:45Z,42.805,6.029,13.2978,4.59983,2470.343,2021-1-11T07:02:46Z
2021-01-11T05:04:48Z,42.805,6.029,13.2983,4.59986,2470.343,2021-1-11T07:05:49Z
2021-01-11T05:07:51Z,42.805,6.029,13.2977,4.59987,2470.357,2021-1-11T07:08:52Z
2021-01-11T05:10:54Z,42.805,6.029,13.2979,4.59984,2470.38,2021-1-11T07:11:55Z
2021-01-11T05:13:57Z,42.805,6.029,13.2982,4.59984,2470.343,2021-1-11T07:14:58Z
2021-01-11T05:17:00Z,42.805,6.029,13.2979,4.59985,2470.343,2021-1-11T07:18:01Z
2021-01-11T05:20:04Z,42.805,6.029,13.2976,4.59986,2470.357,2021-1-11T07:21:05Z
2021-01-11T05:23:07Z,42.805,6.029,13.2978,4.59986,2470.343,2021-1-11T07:24:08Z
2021-01-11T05:26:10Z,42.805,6.029,13.2979,4.59984,2470.366,2021-1-11T07:27:11Z
2021-01-11T05:29:13Z,42.805,6.029,13.2977,4.59985,2470.334,2021-1-11T07:30:14Z
2021-01-11T05:32:16Z,42.805,6.029,13.2981,4.59984,2470.38,2021-1-11T07:33:17Z
2021-01-11T05:35:19Z,42.805,6.029,13.2980,4.59986,2470.343,2021-1-11T07:36:20Z
2021-01-11T05:38:22Z,42.805,6.029,13.2981,4.59983,2470.357,2021-1-11T07:39:23Z
2021-01-11T05:41:25Z,42.805,6.029,13.2979,4.59985,2470.366,2021-1-11T07:42:26Z
2021-01-11T05:44:29Z,42.805,6.029,13.2979,4.59984,2470.366,2021-1-11T07:45:30Z
2021-01-11T05:47:32Z,42.805,6.029,13.2982,4.59984,2470.343,2021-1-11T07:48:33Z
2021-01-11T05:50:35Z,42.805,6.029,13.2978,4.59983,2470.38,2021-1-11T07:51:36Z
2021-01-11T05:53:38Z,42.805,6.029,13.2980,4.59985,2470.366,2021-1-11T07:54:39Z
2021-01-11T05:56:41Z,42.805,6.029,13.2980,4.59984,2470.38,2021-1-11T07:57:42Z
2021-01-11T05:59:44Z,42.805,6.029,13.2981,4.59986,2470.366,2021-1-11T08:00:45Z
2021-01-11T06:02:47Z,42.805,6.029,13.2981,4.59983,2470.343,2021-1-11T08:03:48Z
2021-01-11T06:05:50Z,42.805,6.029,13.2979,4.59986,2470.404,2021-1-11T08:06:51Z
2021-01-11T06:08:53Z,42.805,6.029,13.2982,4.59983,2470.343,2021-1-11T08:09:55Z
2021-01-11T06:11:57Z,42.805,6.029,13.2972,4.59983,2470.366,2021-1-11T08:12:58Z
2021-01-11T06:15:00Z,42.805,6.029,13.2975,4.59985,2470.366,2021-1-11T08:16:01Z
2021-01-11T06:18:03Z,42.805,6.029,13.2979,4.59986,2470.38,2021-1-11T08:19:04Z
2021-01-11T06:21:06Z,42.805,6.029,13.2981,4.59986,2470.32,2021-1-11T08:22:07Z
2021-01-11T06:24:09Z,42.805,6.029,13.2980,4.59984,2470.32,2021-1-11T08:25:10Z
2021-01-11T06:27:12Z,42.805,6.029,13.2976,4.59986,2470.366,2021-1-11T08:28:13Z
2021-01-11T06:30:15Z,42.805,6.029,13.2982,4.59984,2470.357,2021-1-11T08:31:16Z
2021-01-11T06:33:18Z,42.805,6.029,13.2978,4.59985,2470.343,2021-1-11T08:34:20Z
2021-01-11T06:36:22Z,42.805,6.029,13.2981,4.59983,2470.357,2021-1-11T08:37:23Z
2021-01-11T06:39:25Z,42.805,6.029,13.2982,4.59982,2470.366,2021-1-11T08:40:26Z
2021-01-11T06:42:28Z,42.805,6.029,13.2979,4.59983,2470.404,2021-1-11T08:43:29Z
2021-01-11T06:45:31Z,42.805,6.029,13.2980,4.59986,2470.357,2021-1-11T08:46:32Z
2021-01-11T06:48:34Z,42.805,6.029,13.2980,4.59984,2470.366,2021-1-11T08:49:35Z
2021-01-11T06:51:37Z,42.805,6.029,13.2980,4.59984,2470.357,2021-1-11T08:52:38Z
2021-01-11T06:54:40Z,42.805,6.029,13.2983,4.59984,2470.38,2021-1-11T08:55:41Z
2021-01-11T06:57:43Z,42.805,6.029,13.2977,4.59991,2470.394,2021-1-11T08:58:45Z
2021-01-11T07:00:47Z,42.805,6.029,13.2979,4.59984,2470.357,2021-1-11T09:01:48Z
2021-01-11T07:03:50Z,42.805,6.029,13.2980,4.59988,2470.343,2021-1-11T09:04:51Z
2021-01-11T07:06:53Z,42.805,6.029,13.2978,4.59983,2470.366,2021-1-11T09:07:54Z
2021-01-11T07:09:56Z,42.805,6.029,13.2982,4.59985,2470.366,2021-1-11T09:10:57Z
2021-01-11T07:12:59Z,42.805,6.029,13.2979,4.59983,2470.38,2021-1-11T09:14:00Z
2021-01-11T07:16:02Z,42.805,6.029,13.2981,4.59983,2470.343,2021-1-11T09:17:03Z
2021-01-11T07:19:05Z,42.805,6.029,13.2978,4.59983,2470.366,2021-1-11T09:20:06Z
2021-01-11T07:22:08Z,42.805,6.029,13.2979,4.59984,2470.343,2021-1-11T09:23:09Z
2021-01-11T07:25:12Z,42.805,6.029,13.2983,4.59983,2470.357,2021-1-11T09:26:13Z
2021-01-11T07:28:15Z,42.805,6.029,13.2976,4.59983,2470.366,2021-1-11T09:29:16Z
2021-01-11T07:31:18Z,42.805,6.029,13.2978,4.59983,2470.343,2021-1-11T09:32:19Z
2021-01-11T07:34:21Z,42.805,6.029,13.2984,4.59984,2470.343,2021-1-11T09:35:22Z
2021-01-11T07:37:24Z,42.805,6.029,13.2983,4.59983,2470.32,2021-1-11T09:38:25Z
2021-01-11T07:40:27Z,42.805,6.029,13.2982,4.59984,2470.357,2021-1-11T09:41:28Z
2021-01-11T07:43:30Z,42.805,6.029,13.2976,4.59988,2470.38,2021-1-11T09:44:31Z
2021-01-11T07:46:33Z,42.805,6.029,13.2979,4.59984,2470.366,2021-1-11T09:47:34Z
2021-01-11T07:49:36Z,42.805,6.029,13.2976,4.59984,2470.343,2021-1-11T09:50:38Z
2021-01-11T07:52:40Z,42.805,6.029,13.2980,4.59983,2470.343,2021-1-11T09:53:41Z
2021-01-11T07:55:43Z,42.805,6.029,13.2980,4.59982,2470.38,2021-1-11T09:56:44Z
2021-01-11T07:58:46Z,42.805,6.029,13.2982,4.59986,2470.38,2021-1-11T09:59:47Z
2021-01-11T08:01:49Z,42.805,6.029,13.2979,4.59986,2470.32,2021-1-11T10:02:50Z
2021-01-11T08:04:52Z,42.805,6.029,13.2982,4.59985,2470.38,2021-1-11T10:05:53Z
2021-01-11T08:07:55Z,42.805,6.029,13.2981,4.59983,2470.366,2021-1-11T10:08:56Z
2021-01-11T08:10:58Z,42.805,6.029,13.2982,4.59985,2470.32,2021-1-11T10:11:59Z
2021-01-11T08:14:02Z,42.805,6.029,13.2981,4.59984,2470.404,2021-1-11T10:15:03Z
2021-01-11T08:17:05Z,42.805,6.029,13.2981,4.59984,2470.343,2021-1-11T10:18:06Z
2021-01-11T08:20:08Z,42.805,6.029,13.2982,4.59986,2470.343,2021-1-11T10:21:09Z
2021-01-11T08:23:11Z,42.805,6.029,13.2980,4.59983,2470.32,2021-1-11T10:24:12Z
2021-01-11T08:26:14Z,42.805,6.029,13.2982,4.59986,2470.32,2021-1-11T10:27:15Z
2021-01-11T08:29:17Z,42.805,6.029,13.2980,4.59986,2470.32,2021-1-11T10:30:18Z
2021-01-11T08:32:20Z,42.805,6.029,13.2981,4.59987,2470.38,2021-1-11T10:33:21Z
2021-01-11T08:35:23Z,42.805,6.029,13.2976,4.59983,2470.343,2021-1-11T10:36:24Z
2021-01-11T08:38:27Z,42.805,6.029,13.2979,4.59983,2470.343,2021-1-11T10:39:28Z
2021-01-11T08:41:30Z,42.805,6.029,13.2981,4.59983,2470.32,2021-1-11T10:42:31Z
2021-01-11T08:44:33Z,42.805,6.029,13.2979,4.59985,2470.32,2021-1-11T10:45:34Z
2021-01-11T08:47:36Z,42.805,6.029,13.2987,4.59983,2470.38,2021-1-11T10:48:37Z
2021-01-11T08:50:39Z,42.805,6.029,13.2982,4.59983,2470.297,2021-1-11T10:51:40Z
2021-01-11T08:53:42Z,42.805,6.029,13.2976,4.59983,2470.31,2021-1-11T10:54:43Z
2021-01-11T08:56:45Z,42.805,6.029,13.2980,4.59982,2470.32,2021-1-11T10:57:46Z
2021-01-11T08:59:48Z,42.805,6.029,13.2980,4.59984,2470.366,2021-1-11T11:00:50Z
2021-01-11T09:02:52Z,42.805,6.029,13.2983,4.59987,2470.297,2021-1-11T11:03:53Z
2021-01-11T09:05:55Z,42.805,6.029,13.2982,4.59983,2470.32,2021-1-11T11:06:56Z
2021-01-11T09:08:58Z,42.805,6.029,13.2979,4.59983,2470.343,2021-1-11T11:09:59Z
2021-01-11T09:12:01Z,42.805,6.029,13.2982,4.59982,2470.357,2021-1-11T11:13:02Z
2021-01-11T09:15:04Z,42.805,6.029,13.2982,4.59983,2470.32,2021-1-11T11:16:05Z
2021-01-11T09:18:07Z,42.805,6.029,13.2982,4.59986,2470.353,2021-1-11T11:19:08Z
2021-01-11T09:21:10Z,42.805,6.029,13.2978,4.59983,2470.334,2021-1-11T11:22:11Z
2021-01-11T09:24:13Z,42.805,6.029,13.2982,4.59983,2470.32,2021-1-11T11:25:15Z
2021-01-11T09:27:17Z,42.805,6.029,13.2979,4.59984,2470.334,2021-1-11T11:28:18Z
2021-01-11T09:30:20Z,42.805,6.029,13.2983,4.59983,2470.31,2021-1-11T11:31:21Z
2021-01-11T09:33:23Z,42.805,6.029,13.2979,4.59983,2470.297,2021-1-11T11:34:24Z
2021-01-11T09:36:26Z,42.805,6.029,13.2985,4.59984,2470.334,2021-1-11T11:37:27Z
2021-01-11T09:39:29Z,42.805,6.029,13.2979,4.59983,2470.334,2021-1-11T11:40:30Z
2021-01-11T09:42:32Z,42.805,6.029,13.2981,4.59982,2470.31,2021-1-11T11:43:33Z
2021-01-11T09:45:35Z,42.805,6.029,13.2981,4.59987,2470.32,2021-1-11T11:46:36Z
2021-01-11T09:48:38Z,42.805,6.029,13.2982,4.59986,2470.343,2021-1-11T11:49:40Z
2021-01-11T09:51:42Z,42.805,6.029,13.2979,4.59986,2470.32,2021-1-11T11:52:43Z
2021-01-11T09:54:45Z,42.805,6.029,13.2977,4.59982,2470.32,2021-1-11T11:55:46Z
2021-01-11T09:57:48Z,42.805,6.029,13.2979,4.59986,2470.31,2021-1-11T11:58:49Z
2021-01-11T10:00:51Z,42.805,6.029,13.2979,4.59983,2470.297,2021-1-11T12:01:52Z
2021-01-11T10:03:54Z,42.805,6.029,13.2983,4.59982,2470.334,2021-1-11T12:04:55Z
2021-01-11T10:06:57Z,42.805,6.029,13.2983,4.59982,2470.31,2021-1-11T12:07:58Z
2021-01-11T10:10:00Z,42.805,6.029,13.2982,4.59986,2470.297,2021-1-11T12:11:01Z
2021-01-11T10:13:03Z,42.805,6.029,13.2978,4.59986,2470.297,2021-1-11T12:14:05Z
2021-01-11T10:16:07Z,42.805,6.029,13.2981,4.59984,2470.31,2021-1-11T12:17:08Z
2021-01-11T10:19:10Z,42.805,6.029,13.2979,4.59982,2470.31,2021-1-11T12:20:11Z
2021-01-11T10:22:13Z,42.805,6.029,13.2977,4.59982,2470.31,2021-1-11T12:23:14Z
2021-01-11T10:25:16Z,42.805,6.029,13.2977,4.59983,2470.25,2021-1-11T12:26:17Z
2021-01-11T10:28:19Z,42.805,6.029,13.2980,4.59982,2470.297,2021-1-11T12:29:20Z
2021-01-11T10:31:22Z,42.805,6.029,13.2978,4.59982,2470.31,2021-1-11T12:32:23Z
2021-01-11T10:34:25Z,42.805,6.029,13.2982,4.59983,2470.273,2021-1-11T12:35:26Z
2021-01-11T10:37:29Z,42.805,6.029,13.2979,4.59984,2470.25,2021-1-11T12:38:30Z
2021-01-11T10:40:32Z,42.805,6.029,13.2983,4.59982,2470.273,2021-1-11T12:41:33Z
2021-01-11T10:43:35Z,42.805,6.029,13.2979,4.59983,2470.25,2021-1-11T12:44:36Z
2021-01-11T10:46:38Z,42.805,6.029,13.2982,4.59982,2470.297,2021-1-11T12:47:39Z
2021-01-11T10:49:41Z,42.805,6.029,13.2984,4.59982,2470.297,2021-1-11T12:50:42Z
2021-01-11T10:52:44Z,42.805,6.029,13.2983,4.59982,2470.273,2021-1-11T12:53:45Z
2021-01-11T10:55:47Z,42.805,6.029,13.2983,4.59985,2470.273,2021-1-11T12:56:48Z
2021-01-11T10:58:50Z,42.805,6.029,13.2979,4.59982,2470.273,2021-1-11T12:59:52Z
2021-01-11T11:01:54Z,42.805,6.029,13.2983,4.59982,2470.25,2021-1-11T13:02:55Z
2021-01-11T11:04:57Z,42.805,6.029,13.2984,4.59981,2470.287,2021-1-11T13:05:58Z
2021-01-11T11:08:00Z,42.805,6.029,13.2979,4.59983,2470.25,2021-1-11T13:09:01Z
2021-01-11T11:11:03Z,42.805,6.029,13.2982,4.59984,2470.25,2021-1-11T13:12:04Z
2021-01-11T11:14:06Z,42.805,6.029,13.2982,4.59984,2470.273,2021-1-11T13:15:07Z
2021-01-11T11:17:09Z,42.805,6.029,13.2979,4.59983,2470.25,2021-1-11T13:18:10Z
2021-01-11T11:20:12Z,42.805,6.029,13.2979,4.59986,2470.264,2021-1-11T13:21:13Z
2021-01-11T11:23:15Z,42.805,6.029,13.2982,4.59982,2470.287,2021-1-11T13:24:16Z
2021-01-11T11:26:19Z,42.805,6.029,13.2980,4.59982,2470.227,2021-1-11T13:27:20Z
2021-01-11T11:29:22Z,42.805,6.029,13.2985,4.59981,2470.227,2021-1-11T13:30:23Z
2021-01-11T11:32:25Z,42.805,6.029,13.2978,4.59981,2470.287,2021-1-11T13:33:26Z
2021-01-11T11:35:28Z,42.805,6.029,13.2980,4.59983,2470.227,2021-1-11T13:36:29Z
2021-01-11T11:38:31Z,42.805,6.029,13.2982,4.59982,2470.25,2021-1-11T13:39:32Z
2021-01-11T11:41:34Z,42.805,6.029,13.2978,4.59981,2470.264,2021-1-11T13:42:35Z
2021-01-11T11:44:37Z,42.805,6.029,13.2977,4.59983,2470.227,2021-1-11T13:45:38Z
2021-01-11T11:47:40Z,42.805,6.029,13.2979,4.59982,2470.227,2021-1-11T13:48:42Z
2021-01-11T11:50:44Z,42.805,6.029,13.2981,4.59985,2470.203,2021-1-11T13:51:45Z
2021-01-11T11:53:47Z,42.805,6.029,13.2982,4.59981,2470.227,2021-1-11T13:54:48Z
2021-01-11T11:56:50Z,42.805,6.029,13.2979,4.59982,2470.24,2021-1-11T13:57:51Z
2021-01-11T11:59:53Z,42.805,6.029,13.2979,4.59981,2470.24,2021-1-11T14:00:54Z
2021-01-11T12:02:56Z,42.805,6.029,13.2982,4.59981,2470.227,2021-1-11T14:03:57Z
2021-01-11T12:05:59Z,42.805,6.029,13.2985,4.59982,2470.203,2021-1-11T14:07:00Z
2021-01-11T12:09:02Z,42.805,6.029,13.2978,4.59982,2470.24,2021-1-11T14:10:03Z
2021-01-11T12:12:05Z,42.805,6.029,13.2976,4.59982,2470.227,2021-1-11T14:13:07Z
2021-01-11T12:15:09Z,42.805,6.029,13.2977,4.59982,2470.217,2021-1-11T14:16:10Z
2021-01-11T12:18:12Z,42.805,6.029,13.2984,4.59982,2470.217,2021-1-11T14:19:13Z
2021-01-11T12:21:15Z,42.805,6.029,13.2979,4.59984,2470.227,2021-1-11T14:22:16Z
2021-01-11T12:24:18Z,42.805,6.029,13.2981,4.59982,2470.24,2021-1-11T14:25:19Z
2021-01-11T12:27:21Z,42.805,6.029,13.2977,4.59984,2470.18,2021-1-11T14:28:22Z
2021-01-11T12:30:24Z,42.805,6.029,13.2976,4.59982,2470.194,2021-1-11T14:31:25Z
2021-01-11T12:33:27Z,42.805,6.029,13.2981,4.59982,2470.203,2021-1-11T14:34:28Z
2021-01-11T12:36:31Z,42.805,6.029,13.2982,4.59984,2470.227,2021-1-11T14:37:32Z
2021-01-11T12:39:34Z,42.805,6.029,13.2977,4.59982,2470.203,2021-1-11T14:40:35Z
2021-01-11T12:42:37Z,42.805,6.029,13.2979,4.59982,2470.18,2021-1-11T14:43:38Z
2021-01-11T12:45:40Z,42.805,6.029,13.2981,4.59981,2470.24,2021-1-11T14:46:41Z
2021-01-11T12:48:43Z,42.805,6.029,13.2976,4.59982,2470.194,2021-1-11T14:49:44Z
2021-01-11T12:51:46Z,42.805,6.029,13.2979,4.59984,2470.24,2021-1-11T14:52:47Z
2021-01-11T12:54:49Z,42.805,6.029,13.2981,4.59982,2470.203,2021-1-11T14:55:50Z
2021-01-11T12:57:52Z,42.805,6.029,13.2983,4.59984,2470.227,2021-1-11T14:58:53Z
2021-01-11T13:00:56Z,42.805,6.029,13.2982,4.59984,2470.217,2021-1-11T15:01:57Z
2021-01-11T13:03:59Z,42.805,6.029,13.2982,4.59982,2470.24,2021-1-11T15:05:00Z
2021-01-11T13:07:02Z,42.805,6.029,13.2982,4.59981,2470.25,2021-1-11T15:08:03Z
2021-01-11T13:10:05Z,42.805,6.029,13.2982,4.59981,2470.203,2021-1-11T15:11:06Z
2021-01-11T13:13:08Z,42.805,6.029,13.2982,4.59981,2470.203,2021-1-11T15:14:09Z
2021-01-11T13:16:11Z,42.805,6.029,13.2978,4.59982,2470.156,2021-1-11T15:17:12Z
2021-01-11T13:19:14Z,42.805,6.029,13.2981,4.59981,2470.227,2021-1-11T15:20:15Z
2021-01-11T13:22:17Z,42.805,6.029,13.2976,4.59982,2470.203,2021-1-11T15:23:18Z
2021-01-11T13:25:21Z,42.805,6.029,13.2980,4.59981,2470.203,2021-1-11T15:26:22Z
2021-01-11T13:28:24Z,42.805,6.029,13.2978,4.59981,2470.217,2021-1-11T15:29:25Z
2021-01-11T13:31:27Z,42.805,6.029,13.2982,4.59982,2470.217,2021-1-11T15:32:28Z
2021-01-11T13:34:30Z,42.805,6.029,13.2983,4.59981,2470.217,2021-1-11T15:35:31Z
2021-01-11T13:37:33Z,42.805,6.029,13.2982,4.59982,2470.227,2021-1-11T15:38:34Z
2021-01-11T13:40:36Z,42.805,6.029,13.2977,4.59982,2470.227,2021-1-11T15:41:37Z
2021-01-11T13:43:39Z,42.805,6.029,13.2980,4.59983,2470.203,2021-1-11T15:44:40Z
2021-01-11T13:46:42Z,42.805,6.029,13.2977,4.59984,2470.217,2021-1-11T15:47:44Z
2021-01-11T13:49:46Z,42.805,6.029,13.2980,4.59982,2470.217,2021-1-11T15:50:47Z
2021-01-11T13:52:49Z,42.805,6.029,13.2981,4.59984,2470.227,2021-1-11T15:53:50Z
2021-01-11T13:55:52Z,42.805,6.029,13.2982,4.59982,2470.227,2021-1-11T15:56:53Z
2021-01-11T13:58:55Z,42.805,6.029,13.2982,4.59981,2470.24,2021-1-11T15:59:56Z
2021-01-11T14:01:58Z,42.805,6.029,13.2976,4.59983,2470.203,2021-1-11T16:02:59Z
2021-01-11T14:05:01Z,42.805,6.029,13.2979,4.59986,2470.24,2021-1-11T16:06:02Z
2021-01-11T14:08:04Z,42.805,6.029,13.2984,4.59983,2470.227,2021-1-11T16:09:05Z
2021-01-11T14:11:07Z,42.805,6.029,13.2980,4.59982,2470.264,2021-1-11T16:12:09Z
2021-01-11T14:14:11Z,42.805,6.029,13.2979,4.59983,2470.203,2021-1-11T16:15:12Z
2021-01-11T14:17:14Z,42.805,6.029,13.2977,4.59982,2470.227,2021-1-11T16:18:15Z
2021-01-11T14:20:17Z,42.805,6.029,13.2980,4.59983,2470.227,2021-1-11T16:21:18Z
2021-01-11T14:23:20Z,42.805,6.029,13.2976,4.59981,2470.227,2021-1-11T16:24:21Z
2021-01-11T14:26:23Z,42.805,6.029,13.2982,4.59983,2470.217,2021-1-11T16:27:24Z
2021-01-11T14:29:26Z,42.805,6.029,13.2981,4.59983,2470.264,2021-1-11T16:30:27Z
2021-01-11T14:32:29Z,42.805,6.029,13.2979,4.59982,2470.24,2021-1-11T16:33:30Z
2021-01-11T14:35:32Z,42.805,6.029,13.2982,4.59982,2470.25,2021-1-11T16:36:34Z
2021-01-11T14:38:36Z,42.805,6.029,13.2980,4.59983,2470.287,2021-1-11T16:39:37Z
2021-01-11T14:41:39Z,42.805,6.029,13.2979,4.59986,2470.227,2021-1-11T16:42:40Z
2021-01-11T14:44:42Z,42.805,6.029,13.2979,4.59984,2470.287,2021-1-11T16:45:43Z
2021-01-11T14:47:45Z,42.805,6.029,13.2981,4.59982,2470.25,2021-1-11T16:48:46Z
2021-01-11T14:50:48Z,42.805,6.029,13.2979,4.59981,2470.287,2021-1-11T16:51:49Z
2021-01-11T14:53:51Z,42.805,6.029,13.2979,4.59982,2470.25,2021-1-11T16:54:52Z
2021-01-11T14:56:54Z,42.805,6.029,13.2981,4.59982,2470.287,2021-1-11T16:57:56Z
2021-01-11T14:59:58Z,42.805,6.029,13.2978,4.59982,2470.287,2021-1-11T17:00:59Z
2021-01-11T15:03:01Z,42.805,6.029,13.2983,4.59983,2470.273,2021-1-11T17:04:02Z
2021-01-11T15:06:04Z,42.805,6.029,13.2978,4.59982,2470.264,2021-1-11T17:07:05Z
2021-01-11T15:09:07Z,42.805,6.029,13.2981,4.59982,2470.287,2021-1-11T17:10:08Z
2021-01-11T15:12:10Z,42.805,6.029,13.2982,4.59983,2470.273,2021-1-11T17:13:11Z
2021-01-11T15:15:13Z,42.805,6.029,13.2980,4.59983,2470.25,2021-1-11T17:16:14Z